Location: St. Louis
(38.6270°N, 90.1994°W)
Time: 10:13:58
(UTC-06:00)

Tiros 1 despin weight - Pass Details

Date: 06 December 2021
Orbit: 592 x 641 km, 48.2° (Epoch: 25 January)

Event Time Altitude Azimuth Distance (km) Brightness Sun altitude
Rises 18:06:03 0° 300° (WNW) 2,824 ? -16.5°
Reaches altitude 10° 18:08:21 10° 298° (WNW) 1,922 ? -16.9°
Maximum altitude 18:12:42 64° 217° (SW) 657 ? -17.7°
Enters shadow 18:16:12 16° 138° (SE) 1,594 ? -18.4°
